This demonstration page uses our WeatherBlox Daily Observations layout. Learn more.

Hourly Observations for June 3, 2015

Temp ( °F °C ) Dew Point ( °F °C ) Humidity (%) Winds ( mph kmh ) Pressure ( in mb ) Visibility ( mi km ) Precip ( " mm )
12:15 am 00:15 Clear 72 22 64 18 78 78 SE 14 22 29.68 1005 10 16.09344 0 0
12:35 am 00:35 Clear 72 22 64 18 78 78 SE 12 19 29.71 1006 10 16.09344 0 0
12:55 am 00:55 Clear 70 21 64 18 83 83 SE 12 19 29.68 1005 10 16.09344 0 0
1:15 am 01:15 Clear 70 21 64 18 83 83 SE 12 19 29.68 1005 10 16.09344 0 0
1:35 am 01:35 Clear with Nearby Thunderstorms 70 21 64 18 83 83 E 9 15 29.74 1007 10 16.09344 0 0
1:55 am 01:55 Partly Cloudy 70 21 55 13 60 60 NE 17 28 29.74 1007 10 16.09344 0 0
2:15 am 02:15 Partly Cloudy 66 19 55 13 68 68 ENE 20 31 29.77 1008 10 16.09344 0 0
2:35 am 02:35 Mostly Cloudy 63 17 55 13 77 77 NE 22 35 29.8 1009 10 16.09344 0 0
2:55 am 02:55 Partly Cloudy 63 17 55 13 77 77 NE 21 33 29.83 1010 10 16.09344 0 0
3:15 am 03:15 Partly Cloudy 61 16 57 14 88 88 ENE 18 30 29.8 1009 10 16.09344 0 0
3:35 am 03:35 Partly Cloudy 61 16 57 14 88 88 E 14 22 29.77 1008 10 16.09344 0 0
3:55 am 03:55 Clear 61 16 57 14 88 88 E 15 24 29.77 1008 10 16.09344 0 0
4:15 am 04:15 Clear 61 16 57 14 88 88 E 12 19 29.8 1009 10 16.09344 0 0
4:35 am 04:35 Mostly Cloudy 61 16 57 14 88 88 NNE 5 7 29.85 1011 10 16.09344 0 0
4:55 am 04:55 Cloudy 61 16 57 14 88 88 NE 10 17 29.85 1011 10 16.09344 0 0
5:15 am 05:15 Cloudy 61 16 57 14 88 88 N 14 22 29.91 1013 10 16.09344 0 0
5:35 am 05:35 Cloudy 63 17 57 14 83 83 NNE 16 26 29.88 1012 10 16.09344 0 0
5:55 am 05:55 Cloudy 63 17 57 14 83 83 NE 16 26 29.88 1012 10 16.09344 0 0
6:15 am 06:15 Cloudy 63 17 55 13 77 77 E 17 28 29.85 1011 10 16.09344 0 0
6:35 am 06:35 Mostly Cloudy 61 16 55 13 83 83 E 15 24 29.85 1011 10 16.09344 0 0
6:55 am 06:55 Partly Cloudy 61 16 55 13 83 83 E 17 28 29.85 1011 10 16.09344 0 0
7:15 am 07:15 Sunny 61 16 55 13 83 83 E 14 22 29.85 1011 10 16.09344 0 0
7:35 am 07:35 Sunny 61 16 55 13 83 83 ESE 15 24 29.83 1010 10 16.09344 0 0
7:55 am 07:55 Sunny 63 17 57 14 83 83 ESE 17 28 29.8 1009 10 16.09344 0 0
8:15 am 08:15 Sunny 64 18 57 14 78 78 ESE 17 28 29.77 1008 10 16.09344 0 0
8:35 am 08:35 Sunny 64 18 57 14 78 78 ESE 18 30 29.77 1008 10 16.09344 0 0
8:55 am 08:55 Sunny 66 19 57 14 73 73 SE 18 30 29.74 1007 10 16.09344 0 0
9:15 am 09:15 Sunny 68 20 57 14 69 69 SE 18 30 29.77 1008 10 16.09344 0 0
9:35 am 09:35 Sunny 70 21 57 14 64 64 SE 17 28 29.77 1008 10 16.09344 0 0
9:55 am 09:55 Sunny 70 21 57 14 64 64 SSE 15 24 29.8 1009 10 16.09344 0 0
10:15 am 10:15 Sunny 72 22 55 13 57 57 N 3 6 29.83 1010 10 16.09344 0 0
10:35 am 10:35 Sunny 70 21 57 14 64 64 ENE 3 6 29.83 1010 10 16.09344 0 0
10:55 am 10:55 Sunny 72 22 57 14 61 61 Calm 29.83 1010 10 16.09344 0 0
11:15 am 11:15 Sunny 72 22 57 14 61 61 E 5 7 29.83 1010 10 16.09344 0 0
11:35 am 11:35 Sunny 73 23 55 13 53 53 SE 7 11 29.8 1009 10 16.09344 0 0
11:55 am 11:55 Sunny 73 23 55 13 53 53 ESE 5 7 29.8 1009 10 16.09344 0 0
12:15 pm 12:15 Sunny 75 24 57 14 54 54 E 8 13 29.83 1010 10 16.09344 0 0
12:35 pm 12:35 Sunny 77 25 57 14 51 51 E 6 9 29.83 1010 10 16.09344 0 0
12:55 pm 12:55 Sunny 77 25 55 13 47 47 E 5 7 29.83 1010 10 16.09344 0 0
1:15 pm 13:15 Sunny 77 25 55 13 47 47 E 8 13 29.83 1010 10 16.09344 0 0
1:35 pm 13:35 Sunny 79 26 55 13 45 45 ESE 9 15 29.83 1010 10 16.09344 0 0
1:55 pm 13:55 Sunny 79 26 55 13 45 45 N 3 6 29.83 1010 10 16.09344 0 0
2:15 pm 14:15 Sunny 79 26 57 14 48 48 ESE 10 17 29.83 1010 10 16.09344 0 0
2:35 pm 14:35 Partly Cloudy 81 27 55 13 42 42 E 6 9 29.8 1009 10 16.09344 0 0
2:55 pm 14:55 Partly Cloudy 81 27 55 13 42 42 NE 3 6 29.77 1008 10 16.09344 0 0
3:15 pm 15:15 Partly Cloudy 81 27 57 14 45 45 ENE 13 20 29.77 1008 10 16.09344 0 0
3:35 pm 15:35 Partly Cloudy 79 26 57 14 48 48 NE 14 22 29.77 1008 10 16.09344 0 0
3:55 pm 15:55 Partly Cloudy 81 27 57 14 45 45 NE 12 19 29.77 1008 10 16.09344 0 0
4:15 pm 16:15 Partly Cloudy 81 27 57 14 45 45 NE 10 17 29.77 1008 10 16.09344 0 0
4:35 pm 16:35 Partly Cloudy 81 27 59 15 48 48 E 13 20 29.77 1008 10 16.09344 0 0
4:55 pm 16:55 Partly Cloudy 81 27 59 15 48 48 ENE 13 20 29.77 1008 10 16.09344 0 0
5:15 pm 17:15 Partly Cloudy 79 26 59 15 51 51 ENE 13 20 29.77 1008 10 16.09344 0 0
5:35 pm 17:35 Mostly Cloudy 79 26 57 14 48 48 E 15 24 29.77 1008 10 16.09344 0 0
5:55 pm 17:55 Mostly Cloudy 79 26 57 14 48 48 E 14 22 29.77 1008 10 16.09344 0 0
6:15 pm 18:15 Partly Cloudy 79 26 59 15 51 51 E 14 22 29.77 1008 10 16.09344 0 0
6:35 pm 18:35 Partly Cloudy 79 26 59 15 51 51 E 13 20 29.77 1008 10 16.09344 0 0
6:55 pm 18:55 Partly Cloudy 79 26 59 15 51 51 ENE 15 24 29.77 1008 10 16.09344 0 0
7:15 pm 19:15 Sunny 77 25 59 15 54 54 ENE 15 24 29.8 1009 10 16.09344 0 0
7:35 pm 19:35 Partly Cloudy 77 25 59 15 54 54 E 13 20 29.8 1009 10 16.09344 0 0
7:55 pm 19:55 Mostly Cloudy 77 25 59 15 54 54 E 12 19 29.8 1009 10 16.09344 0 0
8:15 pm 20:15 Partly Cloudy 75 24 59 15 57 57 ENE 16 26 29.8 1009 10 16.09344 0 0
8:35 pm 20:35 Sunny 75 24 59 15 57 57 ENE 15 24 29.8 1009 10 16.09344 0 0
8:55 pm 20:55 Sunny 73 23 59 15 61 61 E 9 15 29.8 1009 10 16.09344 0 0
9:15 pm 21:15 Clear 72 22 59 15 65 65 ENE 10 17 29.83 1010 10 16.09344 0 0
9:35 pm 21:35 Clear 72 22 61 16 69 69 E 10 17 29.83 1010 10 16.09344 0 0
9:55 pm 21:55 Partly Cloudy 72 22 61 16 69 69 E 10 17 29.83 1010 10 16.09344 0 0
10:15 pm 22:15 Partly Cloudy 72 22 61 16 69 69 E 10 17 29.85 1011 10 16.09344 0 0
10:35 pm 22:35 Partly Cloudy 72 22 61 16 69 69 E 12 19 29.85 1011 10 16.09344 0 0
10:55 pm 22:55 Mostly Cloudy 72 22 61 16 69 69 E 13 20 29.85 1011 10 16.09344 0 0
11:15 pm 23:15 Partly Cloudy 70 21 61 16 73 73 E 14 22 29.85 1011 10 16.09344 0 0
11:35 pm 23:35 Partly Cloudy 70 21 63 17 78 78 E 13 20 29.83 1010 10 16.09344 0 0
11:55 pm 23:55 Mostly Cloudy with Nearby Thunderstorms 70 21 63 17 78 78 E 14 22 29.83 1010 10 16.09344 0 0

Powered by AerisWeather